Time,TemperatureF,DewpointF,PressureIn,WindDirection,WindDirectionDegrees,WindSpeedMPH,WindSpeedGustMPH,Humidity,HourlyPrecipIn,Conditions,Clouds,dailyrainin,SoftwareType,DateUTC
2013-05-18 00:00:00,43.2,42.0,29.86,SE,134,0.0,1.0,96,0.00,,,0.28,weatherlink.com 1.10,2013-05-18 06:00:00,
2013-05-18 00:15:00,43.1,42.0,29.85,SE,134,0.0,0.0,96,0.00,,,0.28,weatherlink.com 1.10,2013-05-18 06:15:00,
2013-05-18 00:30:00,42.9,42.0,29.85,SE,134,0.0,0.0,96,0.00,,,0.28,weatherlink.com 1.10,2013-05-18 06:30:00,
2013-05-18 00:45:00,42.8,42.0,29.85,SE,134,0.0,0.0,96,0.00,,,0.28,weatherlink.com 1.10,2013-05-18 06:45:00,
2013-05-18 01:00:00,42.9,42.0,29.86,East,98,0.0,0.0,96,0.00,,,0.28,weatherlink.com 1.10,2013-05-18 07:00:00,
2013-05-18 01:15:00,42.7,42.0,29.85,SE,131,0.0,0.0,96,0.00,,,0.28,weatherlink.com 1.10,2013-05-18 07:15:00,
2013-05-18 01:30:00,42.6,42.0,29.85,SE,131,0.0,0.0,96,0.00,,,0.28,weatherlink.com 1.10,2013-05-18 07:30:00,
2013-05-18 01:45:00,42.3,41.0,29.85,SE,131,0.0,0.0,96,0.00,,,0.28,weatherlink.com 1.10,2013-05-18 07:45:00,
2013-05-18 02:00:00,42.2,41.0,29.85,SE,131,0.0,0.0,96,0.00,,,0.28,weatherlink.com 1.10,2013-05-18 08:00:00,
2013-05-18 02:15:00,42.1,41.0,29.86,SE,131,0.0,0.0,96,0.00,,,0.28,weatherlink.com 1.10,2013-05-18 08:15:00,
2013-05-18 02:30:00,42.2,41.0,29.86,SE,131,0.0,0.0,96,0.00,,,0.28,weatherlink.com 1.10,2013-05-18 08:30:00,
2013-05-18 02:45:00,42.5,42.0,29.86,ESE,106,0.0,1.0,97,0.00,,,0.28,weatherlink.com 1.10,2013-05-18 08:45:00,
2013-05-18 03:00:00,42.4,42.0,29.86,ESE,105,0.0,1.0,97,0.00,,,0.28,weatherlink.com 1.10,2013-05-18 09:00:00,
2013-05-18 03:15:00,42.5,42.0,29.86,ESE,105,0.0,0.0,97,0.00,,,0.28,weatherlink.com 1.10,2013-05-18 09:15:00,
2013-05-18 03:30:00,42.6,42.0,29.86,ESE,105,0.0,0.0,97,0.00,,,0.28,weatherlink.com 1.10,2013-05-18 09:30:00,
2013-05-18 03:45:00,42.7,42.0,29.87,ESE,106,0.0,0.0,97,0.00,,,0.28,weatherlink.com 1.10,2013-05-18 09:45:00,
2013-05-18 04:00:00,42.7,42.0,29.87,ESE,106,0.0,0.0,97,0.00,,,0.28,weatherlink.com 1.10,2013-05-18 10:00:00,
2013-05-18 04:15:00,42.8,42.0,29.87,SSW,199,0.0,0.0,97,0.00,,,0.28,weatherlink.com 1.10,2013-05-18 10:15:00,
2013-05-18 04:30:00,42.5,42.0,29.88,WSW,250,1.0,1.0,97,0.00,,,0.28,weatherlink.com 1.10,2013-05-18 10:30:00,
2013-05-18 04:45:00,41.2,40.0,29.89,WSW,255,0.0,2.0,95,0.02,,,0.30,weatherlink.com 1.10,2013-05-18 10:45:00,
2013-05-18 05:00:00,40.3,39.0,29.89,WSW,248,0.0,2.0,95,0.08,,,0.36,weatherlink.com 1.10,2013-05-18 11:00:00,
2013-05-18 05:16:00,39.7,39.0,29.90,East,80,4.0,4.0,96,0.12,,,0.40,weatherlink.com 1.10,2013-05-18 11:16:00,
2013-05-18 05:31:00,39.3,38.0,29.90,East,79,1.0,4.0,96,0.17,,,0.45,weatherlink.com 1.10,2013-05-18 11:31:00,
2013-05-18 05:46:00,38.4,37.0,29.91,East,79,2.0,5.0,94,0.16,,,0.46,weatherlink.com 1.10,2013-05-18 11:46:00,
2013-05-18 06:01:00,37.4,36.0,29.91,ENE,59,1.0,6.0,94,0.11,,,0.00,weatherlink.com 1.10,2013-05-18 12:01:00,
2013-05-18 06:16:00,37.2,36.0,29.91,East,82,2.0,5.0,94,0.07,,,0.00,weatherlink.com 1.10,2013-05-18 12:16:00,
2013-05-18 06:31:00,37.3,36.0,29.92,NNE,32,1.0,3.0,94,0.02,,,0.00,weatherlink.com 1.10,2013-05-18 12:31:00,
2013-05-18 06:46:00,37.1,35.0,29.92,WSW,243,0.0,2.0,93,0.01,,,0.00,weatherlink.com 1.10,2013-05-18 12:46:00,
2013-05-18 07:01:00,36.5,35.0,29.92,WSW,242,0.0,0.0,95,0.00,,,0.00,weatherlink.com 1.10,2013-05-18 13:01:00,
2013-05-18 07:16:00,36.9,36.0,29.93,WSW,243,0.0,0.0,96,0.00,,,0.00,weatherlink.com 1.10,2013-05-18 13:16:00,
2013-05-18 07:31:00,37.7,37.0,29.94,WSW,243,0.0,0.0,96,0.00,,,0.00,weatherlink.com 1.10,2013-05-18 13:31:00,
2013-05-18 07:46:00,38.5,38.0,29.93,SE,124,0.0,1.0,96,0.00,,,0.00,weatherlink.com 1.10,2013-05-18 13:46:00,
2013-05-18 08:01:00,38.9,38.0,29.94,ESE,112,0.0,0.0,95,0.00,,,0.00,weatherlink.com 1.10,2013-05-18 14:01:00,
2013-05-18 08:16:00,39.8,39.0,29.94,SW,215,0.0,0.0,95,0.00,,,0.00,weatherlink.com 1.10,2013-05-18 14:16:00,
2013-05-18 08:31:00,40.4,39.0,29.94,SW,215,0.0,0.0,94,0.00,,,0.00,weatherlink.com 1.10,2013-05-18 14:31:00,
2013-05-18 08:46:00,42.1,40.0,29.94,WSW,248,0.0,1.0,91,0.00,,,0.00,weatherlink.com 1.10,2013-05-18 14:46:00,
2013-05-18 09:01:00,45.3,42.0,29.94,WSW,244,1.0,2.0,87,0.00,,,0.00,weatherlink.com 1.10,2013-05-18 15:01:00,
2013-05-18 09:16:00,45.9,41.0,29.94,WSW,246,1.0,3.0,84,0.00,,,0.00,weatherlink.com 1.10,2013-05-18 15:16:00,
2013-05-18 09:31:00,46.3,41.0,29.94,West,262,1.0,4.0,82,0.00,,,0.00,weatherlink.com 1.10,2013-05-18 15:31:00,
2013-05-18 09:46:00,46.4,40.0,29.94,WSW,250,0.0,3.0,77,0.00,,,0.00,weatherlink.com 1.10,2013-05-18 15:46:00,
2013-05-18 10:01:00,47.6,41.0,29.94,West,281,1.0,3.0,77,0.00,,,0.00,weatherlink.com 1.10,2013-05-18 16:01:00,
2013-05-18 10:16:00,47.6,40.0,29.94,SW,235,0.0,2.0,76,0.00,,,0.00,weatherlink.com 1.10,2013-05-18 16:16:00,
2013-05-18 10:32:00,47.4,40.0,29.93,SE,129,2.0,4.0,76,0.00,,,0.00,weatherlink.com 1.10,2013-05-18 16:32:00,
2013-05-18 10:46:00,47.8,39.0,29.93,ENE,68,0.0,2.0,72,0.00,,,0.00,weatherlink.com 1.10,2013-05-18 16:46:00,
2013-05-18 11:01:00,48.0,40.0,29.93,SSE,150,1.0,2.0,73,0.00,,,0.00,weatherlink.com 1.10,2013-05-18 17:01:00,
2013-05-18 11:16:00,47.2,40.0,29.94,WSW,249,0.0,2.0,76,0.00,,,0.00,weatherlink.com 1.10,2013-05-18 17:16:00,
2013-05-18 11:32:00,45.5,39.0,29.94,East,96,4.0,6.0,78,0.01,,,0.01,weatherlink.com 1.10,2013-05-18 17:32:00,
2013-05-18 11:47:00,44.1,39.0,29.94,East,84,5.0,6.0,82,0.01,,,0.01,weatherlink.com 1.10,2013-05-18 17:47:00,
2013-05-18 12:02:00,44.8,40.0,29.94,NNE,30,2.0,-999.0,84,-99.99,,,0.02,weatherlink.com 1.10,2013-05-18 18:02:00,
2013-05-18 12:17:00,45.1,40.0,29.94,East,81,5.0,8.0,81,0.02,,,0.02,weatherlink.com 1.10,2013-05-18 18:17:00,
2013-05-18 12:32:00,46.1,41.0,29.94,WNW,300,1.0,3.0,83,0.01,,,0.02,weatherlink.com 1.10,2013-05-18 18:32:00,
2013-05-18 12:47:00,46.9,40.0,29.94,WNW,293,1.0,6.0,78,0.01,,,0.02,weatherlink.com 1.10,2013-05-18 18:47:00,
2013-05-18 13:02:00,48.2,40.0,29.94,West,262,2.0,4.0,74,0.00,,,0.02,weatherlink.com 1.10,2013-05-18 19:02:00,
2013-05-18 13:17:00,50.3,42.0,29.93,NNE,32,1.0,5.0,73,0.00,,,0.02,weatherlink.com 1.10,2013-05-18 19:17:00,
2013-05-18 13:32:00,52.0,41.0,29.93,East,85,3.0,8.0,67,0.00,,,0.02,weatherlink.com 1.10,2013-05-18 19:32:00,
2013-05-18 13:47:00,51.0,40.0,29.93,West,269,1.0,3.0,66,0.00,,,0.02,weatherlink.com 1.10,2013-05-18 19:47:00,
2013-05-18 14:02:00,53.1,43.0,29.93,West,262,1.0,7.0,68,0.00,,,0.02,weatherlink.com 1.10,2013-05-18 20:02:00,
2013-05-18 14:17:00,53.9,43.0,29.92,West,278,1.0,5.0,67,0.00,,,0.02,weatherlink.com 1.10,2013-05-18 20:17:00,
2013-05-18 14:32:00,55.0,45.0,29.92,ENE,68,3.0,4.0,68,0.00,,,0.02,weatherlink.com 1.10,2013-05-18 20:32:00,
2013-05-18 14:47:00,54.5,41.0,29.92,WSW,253,2.0,3.0,61,0.00,,,0.02,weatherlink.com 1.10,2013-05-18 20:47:00,
2013-05-18 15:02:00,53.0,39.0,29.92,WSW,246,1.0,3.0,60,0.00,,,0.02,weatherlink.com 1.10,2013-05-18 21:02:00,
2013-05-18 15:17:00,52.7,42.0,29.92,North,356,1.0,5.0,66,0.00,,,0.02,weatherlink.com 1.10,2013-05-18 21:17:00,
2013-05-18 15:32:00,55.8,42.0,29.92,NE,51,1.0,7.0,61,0.00,,,0.02,weatherlink.com 1.10,2013-05-18 21:32:00,
2013-05-18 15:47:00,57.2,42.0,29.92,WSW,256,3.0,3.0,57,0.00,,,0.02,weatherlink.com 1.10,2013-05-18 21:47:00,
2013-05-18 16:02:00,57.3,42.0,29.91,SSE,156,0.0,5.0,57,0.00,,,0.02,weatherlink.com 1.10,2013-05-18 22:02:00,
2013-05-18 16:17:00,57.0,41.0,29.92,West,271,0.0,5.0,56,0.00,,,0.02,weatherlink.com 1.10,2013-05-18 22:17:00,
2013-05-18 16:32:00,56.3,40.0,29.91,WNW,290,1.0,3.0,55,0.00,,,0.02,weatherlink.com 1.10,2013-05-18 22:32:00,
2013-05-18 16:47:00,54.9,39.0,29.91,SE,145,0.0,4.0,55,0.00,,,0.02,weatherlink.com 1.10,2013-05-18 22:47:00,
2013-05-18 17:02:00,57.0,40.0,29.91,WSW,256,3.0,4.0,54,0.00,,,0.02,weatherlink.com 1.10,2013-05-18 23:02:00,
2013-05-18 17:17:00,55.1,38.0,29.92,SW,226,1.0,3.0,53,0.00,,,0.02,weatherlink.com 1.10,2013-05-18 23:17:00,
2013-05-18 17:32:00,56.5,38.0,29.92,SW,218,3.0,6.0,51,0.00,,,0.02,weatherlink.com 1.10,2013-05-18 23:32:00,
2013-05-18 17:47:00,54.4,39.0,29.92,WSW,246,2.0,6.0,57,0.00,,,0.02,weatherlink.com 1.10,2013-05-18 23:47:00,
2013-05-18 18:02:00,53.9,41.0,29.93,SW,231,2.0,3.0,61,0.00,,,0.02,weatherlink.com 1.10,2013-05-19 00:02:00,
2013-05-18 18:17:00,53.8,40.0,29.93,WSW,253,1.0,3.0,59,0.00,,,0.02,weatherlink.com 1.10,2013-05-19 00:17:00,
2013-05-18 18:32:00,52.2,41.0,29.93,West,276,0.0,3.0,65,0.00,,,0.02,weatherlink.com 1.10,2013-05-19 00:32:00,
2013-05-18 18:47:00,52.3,39.0,29.93,WSW,252,3.0,6.0,62,0.00,,,0.02,weatherlink.com 1.10,2013-05-19 00:47:00,
2013-05-18 19:02:00,53.8,39.0,29.93,West,264,2.0,5.0,58,0.00,,,0.02,weatherlink.com 1.10,2013-05-19 01:02:00,
2013-05-18 19:17:00,53.7,41.0,29.93,WSW,242,1.0,5.0,63,0.00,,,0.02,weatherlink.com 1.10,2013-05-19 01:17:00,
2013-05-18 19:32:00,52.8,41.0,29.93,West,260,2.0,3.0,64,0.00,,,0.02,weatherlink.com 1.10,2013-05-19 01:32:00,
2013-05-18 19:47:00,49.4,40.0,29.94,WSW,245,1.0,5.0,70,0.00,,,0.02,weatherlink.com 1.10,2013-05-19 01:47:00,
2013-05-18 20:02:00,48.3,40.0,29.94,WSW,257,2.0,2.0,74,0.00,,,0.02,weatherlink.com 1.10,2013-05-19 02:02:00,
2013-05-18 20:17:00,47.8,40.0,29.94,WSW,246,1.0,4.0,73,0.00,,,0.02,weatherlink.com 1.10,2013-05-19 02:17:00,
2013-05-18 20:32:00,46.4,39.0,29.95,WSW,254,0.0,1.0,76,0.00,,,0.02,weatherlink.com 1.10,2013-05-19 02:32:00,
2013-05-18 20:47:00,45.3,39.0,29.95,West,271,0.0,2.0,79,0.00,,,0.02,weatherlink.com 1.10,2013-05-19 02:47:00,
2013-05-18 21:02:00,44.2,38.0,29.95,WSW,239,1.0,2.0,78,0.00,,,0.02,weatherlink.com 1.10,2013-05-19 03:02:00,
2013-05-18 21:17:00,43.7,38.0,29.96,WSW,242,0.0,2.0,79,0.00,,,0.02,weatherlink.com 1.10,2013-05-19 03:17:00,
2013-05-18 21:32:00,42.8,37.0,29.97,SW,229,1.0,3.0,79,0.00,,,0.02,weatherlink.com 1.10,2013-05-19 03:32:00,
2013-05-18 21:47:00,42.1,37.0,29.98,WSW,243,2.0,3.0,81,0.00,,,0.02,weatherlink.com 1.10,2013-05-19 03:47:00,
2013-05-18 22:02:00,41.4,36.0,29.98,WSW,251,0.0,1.0,82,0.00,,,0.02,weatherlink.com 1.10,2013-05-19 04:02:00,
2013-05-18 22:17:00,41.5,36.0,29.98,WNW,298,1.0,4.0,81,0.00,,,0.02,weatherlink.com 1.10,2013-05-19 04:17:00,
2013-05-18 22:32:00,41.3,36.0,29.98,South,179,0.0,1.0,81,0.00,,,0.02,weatherlink.com 1.10,2013-05-19 04:32:00,
2013-05-18 22:48:00,41.1,35.0,29.98,WSW,251,1.0,2.0,79,0.00,,,0.02,weatherlink.com 1.10,2013-05-19 04:48:00,
2013-05-18 23:02:00,40.2,35.0,29.98,WSW,250,2.0,3.0,81,0.00,,,0.02,weatherlink.com 1.10,2013-05-19 05:02:00,
2013-05-18 23:18:00,40.1,35.0,29.98,WSW,249,1.0,2.0,83,0.00,,,0.02,weatherlink.com 1.10,2013-05-19 05:18:00,
2013-05-18 23:33:00,39.7,36.0,29.98,West,273,0.0,3.0,85,0.00,,,0.02,weatherlink.com 1.10,2013-05-19 05:33:00,
2013-05-18 23:48:00,39.7,36.0,29.98,ESE,108,1.0,2.0,86,0.00,,,0.02,weatherlink.com 1.10,2013-05-19 05:48:00,